Time,TemperatureF,DewpointF,PressureIn,WindDirection,WindDirectionDegrees,WindSpeedMPH,WindSpeedGustMPH,Humidity,HourlyPrecipIn,Conditions,Clouds,dailyrainin,SoftwareType,DateUTC
2013-08-05 00:05:00,62.4,57.8,30.01,SSW,198,2.0,6.0,85,0.00,RA,,0.00,WeatherDisplay:10.37,2013-08-04 23:05:00,
2013-08-05 00:10:00,62.3,57.8,30.01,SSW,192,2.0,6.0,85,0.00,,,0.00,WeatherDisplay:10.37,2013-08-04 23:10:00,
2013-08-05 00:15:00,62.3,57.7,30.01,South,188,2.0,7.0,85,0.00,,,0.00,WeatherDisplay:10.37,2013-08-04 23:15:00,
2013-08-05 00:20:00,62.2,57.6,30.01,South,185,2.0,6.0,85,0.00,,,0.00,WeatherDisplay:10.37,2013-08-04 23:20:00,
2013-08-05 00:25:00,62.2,57.6,30.01,South,183,2.0,5.0,85,0.00,,,0.00,WeatherDisplay:10.37,2013-08-04 23:25:00,
2013-08-05 00:29:00,62.1,57.5,30.01,South,180,2.0,5.0,85,0.00,,,0.00,WeatherDisplay:10.37,2013-08-04 23:29:00,
2013-08-05 00:35:00,62.0,57.4,30.01,South,180,1.0,3.0,85,0.00,,,0.00,WeatherDisplay:10.37,2013-08-04 23:35:00,
2013-08-05 00:44:00,61.9,57.3,30.00,South,180,1.0,4.0,85,0.00,,,0.00,WeatherDisplay:10.37,2013-08-04 23:44:00,
2013-08-05 00:50:00,61.9,57.0,30.00,South,180,1.0,5.0,84,0.00,,,0.00,WeatherDisplay:10.37,2013-08-04 23:50:00,
2013-08-05 00:55:00,61.9,57.0,30.00,South,180,1.0,6.0,84,0.00,,,0.00,WeatherDisplay:10.37,2013-08-04 23:55:00,
2013-08-05 00:59:00,61.9,57.0,30.00,South,182,2.0,8.0,84,0.00,,,0.00,WeatherDisplay:10.37,2013-08-04 23:59:00,
2013-08-05 01:05:00,62.0,57.1,30.00,South,182,3.0,6.0,84,0.00,,,0.00,WeatherDisplay:10.37,2013-08-05 00:05:00,
2013-08-05 01:10:00,62.0,57.1,30.00,South,182,3.0,5.0,84,0.00,,,0.00,WeatherDisplay:10.37,2013-08-05 00:10:00,
2013-08-05 01:14:00,62.0,57.1,30.00,South,182,1.0,6.0,84,0.00,,,0.00,WeatherDisplay:10.37,2013-08-05 00:14:00,
2013-08-05 01:20:00,62.0,57.1,30.00,South,182,2.0,7.0,84,0.00,,,0.00,WeatherDisplay:10.37,2013-08-05 00:20:00,
2013-08-05 01:25:00,62.0,57.1,30.00,South,184,2.0,9.0,84,0.00,,,0.00,WeatherDisplay:10.37,2013-08-05 00:25:00,
2013-08-05 01:30:00,62.0,57.1,30.00,South,182,1.0,6.0,84,0.00,,,0.00,WeatherDisplay:10.37,2013-08-05 00:30:00,
2013-08-05 01:35:00,62.0,57.1,29.99,South,180,2.0,4.0,84,0.00,,,0.00,WeatherDisplay:10.37,2013-08-05 00:35:00,
2013-08-05 01:45:00,62.0,57.1,29.99,South,180,1.0,5.0,84,0.00,,,0.00,WeatherDisplay:10.37,2013-08-05 00:45:00,
2013-08-05 01:50:00,61.9,57.0,29.98,South,180,0.0,5.0,84,0.00,,,0.00,WeatherDisplay:10.37,2013-08-05 00:50:00,
2013-08-05 01:55:00,61.8,56.9,29.98,South,180,1.0,4.0,84,0.00,,,0.00,WeatherDisplay:10.37,2013-08-05 00:55:00,
2013-08-05 01:59:00,61.8,57.2,29.98,South,180,2.0,4.0,85,0.00,,,0.00,WeatherDisplay:10.37,2013-08-05 00:59:00,
2013-08-05 02:05:00,61.7,57.1,29.98,South,180,0.0,4.0,85,0.00,,,0.00,WeatherDisplay:10.37,2013-08-05 01:05:00,
2013-08-05 02:09:00,61.7,57.1,29.98,South,180,1.0,9.0,85,0.00,,,0.00,WeatherDisplay:10.37,2013-08-05 01:09:00,
2013-08-05 02:14:00,61.6,57.4,29.98,South,180,2.0,4.0,86,0.00,,,0.00,WeatherDisplay:10.37,2013-08-05 01:14:00,
2013-08-05 02:20:00,61.6,57.4,29.98,South,180,1.0,3.0,86,0.00,,,0.00,WeatherDisplay:10.37,2013-08-05 01:20:00,
2013-08-05 02:24:00,61.6,57.4,29.98,South,180,2.0,4.0,86,0.00,,,0.00,WeatherDisplay:10.37,2013-08-05 01:24:00,
2013-08-05 02:30:00,61.6,57.4,29.98,South,180,3.0,5.0,86,0.00,,,0.00,WeatherDisplay:10.37,2013-08-05 01:30:00,
2013-08-05 02:35:00,61.5,57.3,29.97,South,181,1.0,5.0,86,0.00,,,0.00,WeatherDisplay:10.37,2013-08-05 01:35:00,
2013-08-05 02:40:00,61.5,57.6,29.97,South,180,1.0,5.0,87,0.00,,,0.00,WeatherDisplay:10.37,2013-08-05 01:40:00,
2013-08-05 02:45:00,61.4,57.5,29.97,South,179,0.0,4.0,87,0.00,,,0.00,WeatherDisplay:10.37,2013-08-05 01:45:00,
2013-08-05 02:50:00,61.3,57.7,29.96,South,179,1.0,4.0,88,0.00,,,0.00,WeatherDisplay:10.37,2013-08-05 01:50:00,
2013-08-05 02:55:00,61.2,57.6,29.96,South,179,0.0,4.0,88,0.00,,,0.00,WeatherDisplay:10.37,2013-08-05 01:55:00,
2013-08-05 03:00:00,61.1,57.5,29.96,South,179,2.0,5.0,88,0.00,,,0.00,WeatherDisplay:10.37,2013-08-05 02:00:00,
2013-08-05 03:05:00,61.1,57.5,29.95,South,179,1.0,4.0,88,0.00,,,0.00,WeatherDisplay:10.37,2013-08-05 02:05:00,
2013-08-05 03:10:00,61.1,57.5,29.95,South,179,0.0,3.0,88,0.00,,,0.00,WeatherDisplay:10.37,2013-08-05 02:10:00,
2013-08-05 03:20:00,61.1,57.5,29.95,South,179,2.0,5.0,88,0.00,,,0.00,WeatherDisplay:10.37,2013-08-05 02:20:00,
2013-08-05 03:24:00,61.1,57.5,29.95,South,178,2.0,5.0,88,0.00,,,0.00,WeatherDisplay:10.37,2013-08-05 02:24:00,
2013-08-05 03:30:00,61.1,57.5,29.95,South,178,2.0,5.0,88,0.00,,,0.00,WeatherDisplay:10.37,2013-08-05 02:30:00,
2013-08-05 03:40:00,61.2,57.3,29.93,South,173,2.0,7.0,87,0.00,,,0.00,WeatherDisplay:10.37,2013-08-05 02:40:00,
2013-08-05 03:45:00,61.3,57.4,29.93,South,173,2.0,6.0,87,0.00,,,0.00,WeatherDisplay:10.37,2013-08-05 02:45:00,
2013-08-05 03:50:00,61.4,57.5,29.93,South,173,1.0,6.0,87,0.00,,,0.00,WeatherDisplay:10.37,2013-08-05 02:50:00,
2013-08-05 03:55:00,61.5,57.3,29.93,South,178,3.0,9.0,86,0.00,,,0.00,WeatherDisplay:10.37,2013-08-05 02:55:00,
2013-08-05 04:00:00,61.6,57.4,29.93,South,184,3.0,7.0,86,0.00,,,0.00,WeatherDisplay:10.37,2013-08-05 03:00:00,
2013-08-05 04:05:00,61.7,57.5,29.92,South,178,2.0,8.0,86,0.00,,,0.00,WeatherDisplay:10.37,2013-08-05 03:05:00,
2013-08-05 04:15:00,61.9,57.7,29.92,South,179,1.0,6.0,86,0.00,,,0.00,WeatherDisplay:10.37,2013-08-05 03:15:00,
2013-08-05 04:19:00,61.9,57.7,29.92,South,182,1.0,4.0,86,0.00,,,0.00,WeatherDisplay:10.37,2013-08-05 03:19:00,
2013-08-05 04:25:00,62.0,57.8,29.92,South,181,2.0,5.0,86,0.00,,,0.00,WeatherDisplay:10.37,2013-08-05 03:25:00,
2013-08-05 04:30:00,62.1,57.5,29.92,South,180,2.0,6.0,85,0.00,,,0.00,WeatherDisplay:10.37,2013-08-05 03:30:00,
2013-08-05 04:35:00,62.1,57.9,29.92,South,179,2.0,5.0,86,0.00,,,0.00,WeatherDisplay:10.37,2013-08-05 03:35:00,
2013-08-05 04:40:00,62.1,57.9,29.92,South,180,0.0,5.0,86,0.00,,,0.00,WeatherDisplay:10.37,2013-08-05 03:40:00,
2013-08-05 04:45:00,62.1,57.9,29.92,South,180,2.0,6.0,86,0.00,,,0.00,WeatherDisplay:10.37,2013-08-05 03:45:00,
2013-08-05 04:55:00,62.1,57.9,29.91,South,179,3.0,7.0,86,0.00,,,0.00,WeatherDisplay:10.37,2013-08-05 03:55:00,
2013-08-05 04:59:00,62.1,57.9,29.91,South,180,5.0,10.0,86,0.00,,,0.00,WeatherDisplay:10.37,2013-08-05 03:59:00,
2013-08-05 05:04:00,62.2,57.9,29.92,South,188,3.0,10.0,86,0.00,,,0.00,WeatherDisplay:10.37,2013-08-05 04:04:00,
2013-08-05 05:09:00,62.2,58.3,29.92,South,190,5.0,8.0,87,0.00,,,0.00,WeatherDisplay:10.37,2013-08-05 04:09:00,
2013-08-05 05:14:00,62.2,58.3,29.92,South,188,3.0,10.0,87,0.00,,,0.00,WeatherDisplay:10.37,2013-08-05 04:14:00,
2013-08-05 05:19:00,62.2,58.3,29.92,South,188,1.0,10.0,87,0.00,,,0.00,WeatherDisplay:10.37,2013-08-05 04:19:00,
2013-08-05 05:25:00,62.2,58.3,29.92,South,191,6.0,12.0,87,0.00,,,0.00,WeatherDisplay:10.37,2013-08-05 04:25:00,
2013-08-05 05:30:00,62.1,58.2,29.92,SSW,193,5.0,12.0,87,0.00,,,0.00,WeatherDisplay:10.37,2013-08-05 04:30:00,
2013-08-05 05:35:00,62.1,58.2,29.91,South,190,1.0,12.0,87,0.00,,,0.00,WeatherDisplay:10.37,2013-08-05 04:35:00,
2013-08-05 05:40:00,62.1,58.5,29.91,South,187,2.0,7.0,88,0.00,,,0.00,WeatherDisplay:10.37,2013-08-05 04:40:00,
2013-08-05 05:45:00,62.1,58.5,29.91,SSW,192,5.0,9.0,88,0.00,,,0.00,WeatherDisplay:10.37,2013-08-05 04:45:00,
2013-08-05 05:55:00,62.1,58.5,29.92,SSW,203,2.0,6.0,88,0.00,,,0.00,WeatherDisplay:10.37,2013-08-05 04:55:00,
2013-08-05 06:00:00,62.0,58.4,29.92,SSW,199,1.0,6.0,88,0.00,,,0.00,WeatherDisplay:10.37,2013-08-05 05:00:00,
2013-08-05 06:05:00,62.0,58.4,29.91,SSW,195,3.0,6.0,88,0.00,,,0.00,WeatherDisplay:10.37,2013-08-05 05:05:00,
2013-08-05 06:10:00,62.0,58.4,29.91,SSW,193,2.0,6.0,88,0.00,,,0.00,WeatherDisplay:10.37,2013-08-05 05:10:00,
2013-08-05 06:15:00,62.0,58.4,29.91,SSW,195,2.0,5.0,88,0.00,,,0.00,WeatherDisplay:10.37,2013-08-05 05:15:00,
2013-08-05 06:20:00,62.0,58.7,29.91,SSW,195,5.0,8.0,89,0.00,,,0.00,WeatherDisplay:10.37,2013-08-05 05:20:00,
2013-08-05 06:24:00,62.0,58.7,29.91,SSW,196,2.0,6.0,89,0.00,,,0.00,WeatherDisplay:10.37,2013-08-05 05:24:00,
2013-08-05 06:29:00,62.0,58.7,29.91,SSW,194,2.0,6.0,89,0.00,,,0.00,WeatherDisplay:10.37,2013-08-05 05:29:00,
2013-08-05 06:34:00,62.0,58.7,29.91,SSW,192,1.0,5.0,89,0.00,,,0.00,WeatherDisplay:10.37,2013-08-05 05:34:00,
2013-08-05 06:40:00,62.0,58.7,29.91,SSW,193,2.0,5.0,89,0.00,,,0.00,WeatherDisplay:10.37,2013-08-05 05:40:00,
2013-08-05 06:45:00,62.0,58.7,29.91,SSW,193,2.0,6.0,89,0.00,,,0.00,WeatherDisplay:10.37,2013-08-05 05:45:00,
2013-08-05 06:50:00,62.0,58.7,29.90,SSW,193,2.0,6.0,89,0.00,,,0.00,WeatherDisplay:10.37,2013-08-05 05:50:00,
2013-08-05 06:55:00,62.1,58.8,29.90,SSW,194,2.0,6.0,89,0.00,,,0.00,WeatherDisplay:10.37,2013-08-05 05:55:00,
2013-08-05 07:00:00,62.1,58.8,29.90,SSW,193,3.0,7.0,89,0.00,,,0.00,WeatherDisplay:10.37,2013-08-05 06:00:00,
2013-08-05 07:05:00,62.2,58.9,29.90,South,189,2.0,6.0,89,0.00,,,0.00,WeatherDisplay:10.37,2013-08-05 06:05:00,
2013-08-05 07:10:00,62.4,58.8,29.90,South,184,3.0,10.0,88,0.00,,,0.00,WeatherDisplay:10.37,2013-08-05 06:10:00,
2013-08-05 07:20:00,62.7,58.8,29.90,South,180,2.0,7.0,87,0.00,,,0.00,WeatherDisplay:10.37,2013-08-05 06:20:00,
2013-08-05 07:25:00,62.8,58.9,29.90,South,178,3.0,12.0,87,0.00,,,0.00,WeatherDisplay:10.37,2013-08-05 06:25:00,
2013-08-05 07:30:00,62.9,59.0,29.90,South,181,2.0,12.0,87,0.00,,,0.00,WeatherDisplay:10.37,2013-08-05 06:30:00,
2013-08-05 07:35:00,63.0,58.7,29.89,South,181,3.0,7.0,86,0.00,,,0.00,WeatherDisplay:10.37,2013-08-05 06:35:00,
2013-08-05 07:40:00,63.1,58.8,29.89,South,191,3.0,10.0,86,0.00,,,0.00,WeatherDisplay:10.37,2013-08-05 06:40:00,
2013-08-05 07:45:00,63.2,58.9,29.89,SSW,193,3.0,9.0,86,0.00,,,0.00,WeatherDisplay:10.37,2013-08-05 06:45:00,
2013-08-05 07:50:00,63.4,59.1,29.90,South,180,3.0,12.0,86,0.00,,,0.00,WeatherDisplay:10.37,2013-08-05 06:50:00,
2013-08-05 07:55:00,63.7,59.1,29.90,South,183,3.0,9.0,85,0.00,,,0.00,WeatherDisplay:10.37,2013-08-05 06:55:00,
2013-08-05 08:00:00,64.0,59.7,29.90,SSW,192,6.0,12.0,86,0.00,,,0.00,WeatherDisplay:10.37,2013-08-05 07:00:00,
2013-08-05 08:05:00,64.1,59.5,29.89,South,182,6.0,10.0,85,0.00,,,0.00,WeatherDisplay:10.37,2013-08-05 07:05:00,
2013-08-05 08:10:00,64.2,59.6,29.89,South,185,3.0,10.0,85,0.00,,,0.00,WeatherDisplay:10.37,2013-08-05 07:10:00,
2013-08-05 08:15:00,64.4,59.5,29.89,SSW,192,6.0,12.0,84,0.00,,,0.00,WeatherDisplay:10.37,2013-08-05 07:15:00,
2013-08-05 08:19:00,64.5,59.6,29.89,South,188,3.0,12.0,84,0.00,,,0.00,WeatherDisplay:10.37,2013-08-05 07:19:00,
2013-08-05 08:25:00,64.5,59.2,29.89,South,187,6.0,12.0,83,0.00,,,0.00,WeatherDisplay:10.37,2013-08-05 07:25:00,
2013-08-05 08:30:00,64.6,59.0,29.89,SSW,197,7.0,14.0,82,0.00,,,0.00,WeatherDisplay:10.37,2013-08-05 07:30:00,
2013-08-05 08:35:00,64.6,59.0,29.89,SSW,199,6.0,10.0,82,0.00,,,0.00,WeatherDisplay:10.37,2013-08-05 07:35:00,
2013-08-05 08:40:00,64.7,59.1,29.89,SSW,195,6.0,14.0,82,0.00,,,0.00,WeatherDisplay:10.37,2013-08-05 07:40:00,
2013-08-05 08:45:00,64.8,59.2,29.89,SSW,201,3.0,12.0,82,0.00,,,0.00,WeatherDisplay:10.37,2013-08-05 07:45:00,
2013-08-05 08:50:00,64.9,59.6,29.89,SSW,211,2.0,11.0,83,0.00,,,0.00,WeatherDisplay:10.37,2013-08-05 07:50:00,
2013-08-05 08:55:00,65.0,59.3,29.89,SSW,198,7.0,15.0,82,0.00,,,0.00,WeatherDisplay:10.37,2013-08-05 07:55:00,
2013-08-05 09:00:00,65.0,59.4,29.89,South,191,6.0,14.0,82,0.00,,,0.00,WeatherDisplay:10.37,2013-08-05 08:00:00,
2013-08-05 09:04:00,65.0,59.0,29.89,South,190,9.0,15.0,81,0.00,,,0.00,WeatherDisplay:10.37,2013-08-05 08:04:00,
2013-08-05 09:10:00,65.1,59.4,29.88,SSW,192,8.0,16.0,82,0.00,,,0.00,WeatherDisplay:10.37,2013-08-05 08:10:00,
2013-08-05 09:15:00,65.1,59.5,29.88,SSW,194,6.0,16.0,82,0.00,,,0.00,WeatherDisplay:10.37,2013-08-05 08:15:00,
2013-08-05 09:20:00,65.2,59.6,29.88,South,190,5.0,12.0,82,0.00,,,0.00,WeatherDisplay:10.37,2013-08-05 08:20:00,
2013-08-05 09:25:00,65.4,59.8,29.88,SSW,192,5.0,12.0,82,0.00,,,0.00,WeatherDisplay:10.37,2013-08-05 08:25:00,
2013-08-05 09:30:00,65.7,60.0,29.88,SSW,192,7.0,12.0,82,0.00,,,0.00,WeatherDisplay:10.37,2013-08-05 08:30:00,
2013-08-05 09:34:00,65.9,59.9,29.88,South,181,6.0,12.0,81,0.00,,,0.00,WeatherDisplay:10.37,2013-08-05 08:34:00,
2013-08-05 09:40:00,65.9,59.9,29.87,South,176,7.0,20.0,81,0.00,,,0.00,WeatherDisplay:10.37,2013-08-05 08:40:00,
2013-08-05 09:45:00,66.0,60.0,29.87,South,178,6.0,14.0,81,0.00,,,0.00,WeatherDisplay:10.37,2013-08-05 08:45:00,
2013-08-05 09:50:00,66.3,59.9,29.86,South,182,5.0,17.0,80,0.00,,,0.00,WeatherDisplay:10.37,2013-08-05 08:50:00,
2013-08-05 09:55:00,66.5,60.1,29.86,SSW,194,3.0,12.0,80,0.00,,,0.00,WeatherDisplay:10.37,2013-08-05 08:55:00,
2013-08-05 10:00:00,66.7,60.3,29.86,SSW,193,6.0,15.0,80,0.00,,,0.00,WeatherDisplay:10.37,2013-08-05 09:00:00,
2013-08-05 10:05:00,66.8,60.1,29.86,South,184,9.0,15.0,79,0.00,,,0.00,WeatherDisplay:10.37,2013-08-05 09:05:00,
2013-08-05 10:10:00,67.0,60.3,29.87,South,187,7.0,16.0,79,0.00,,,0.00,WeatherDisplay:10.37,2013-08-05 09:10:00,
2013-08-05 10:15:00,67.1,60.4,29.87,South,190,6.0,14.0,79,0.00,,,0.00,WeatherDisplay:10.37,2013-08-05 09:15:00,
2013-08-05 10:20:00,67.2,60.5,29.87,South,190,7.0,15.0,79,0.00,,,0.00,WeatherDisplay:10.37,2013-08-05 09:20:00,
2013-08-05 10:24:00,67.5,60.7,29.87,SSW,197,6.0,15.0,79,0.00,,,0.00,WeatherDisplay:10.37,2013-08-05 09:24:00,
2013-08-05 10:30:00,67.8,61.1,29.87,SSW,205,6.0,16.0,79,0.00,,,0.00,WeatherDisplay:10.37,2013-08-05 09:30:00,
2013-08-05 10:35:00,68.3,60.8,29.87,SW,215,3.0,16.0,77,0.00,,,0.00,WeatherDisplay:10.37,2013-08-05 09:35:00,
2013-08-05 10:40:00,68.4,60.5,29.87,SW,220,3.0,17.0,76,0.00,,,0.00,WeatherDisplay:10.37,2013-08-05 09:40:00,
2013-08-05 10:45:00,68.8,60.6,29.87,SSW,207,9.0,17.0,75,0.00,,,0.00,WeatherDisplay:10.37,2013-08-05 09:45:00,
2013-08-05 10:50:00,69.2,60.6,29.87,SSW,205,9.0,16.0,74,0.00,,,0.00,WeatherDisplay:10.37,2013-08-05 09:50:00,
2013-08-05 10:55:00,69.2,60.6,29.87,SW,215,8.0,16.0,74,0.00,,,0.00,WeatherDisplay:10.37,2013-08-05 09:55:00,
2013-08-05 11:00:00,69.2,60.2,29.87,SSW,207,7.0,21.0,73,0.00,,,0.00,WeatherDisplay:10.37,2013-08-05 10:00:00,
2013-08-05 11:05:00,69.2,60.2,29.87,SSW,194,8.0,17.0,73,0.00,,,0.00,WeatherDisplay:10.37,2013-08-05 10:05:00,
2013-08-05 11:09:00,69.1,60.1,29.87,SSW,202,10.0,20.0,73,0.00,,,0.00,WeatherDisplay:10.37,2013-08-05 10:09:00,
2013-08-05 11:15:00,68.8,60.6,29.87,SSW,208,5.0,16.0,75,0.00,,,0.00,WeatherDisplay:10.37,2013-08-05 10:15:00,
2013-08-05 11:20:00,68.6,60.7,29.86,SSW,207,3.0,22.0,76,0.00,,,0.00,WeatherDisplay:10.37,2013-08-05 10:20:00,
2013-08-05 11:25:00,68.5,60.6,29.86,SSW,203,7.0,17.0,76,0.00,,,0.00,WeatherDisplay:10.37,2013-08-05 10:25:00,
2013-08-05 11:30:00,67.9,60.5,29.86,SSW,208,7.0,20.0,77,0.00,,,0.00,WeatherDisplay:10.37,2013-08-05 10:30:00,
2013-08-05 11:35:00,67.2,60.9,29.86,SSW,210,6.0,13.0,80,0.00,,,0.00,WeatherDisplay:10.37,2013-08-05 10:35:00,
2013-08-05 11:40:00,66.7,60.7,29.86,SSW,208,6.0,12.0,81,0.00,,,0.00,WeatherDisplay:10.37,2013-08-05 10:40:00,
2013-08-05 11:50:00,65.9,60.9,29.86,SSW,206,7.0,12.0,84,0.00,,,0.00,WeatherDisplay:10.37,2013-08-05 10:50:00,
2013-08-05 11:55:00,65.8,61.2,29.86,SSW,200,3.0,10.0,85,0.00,,,0.00,WeatherDisplay:10.37,2013-08-05 10:55:00,
2013-08-05 11:59:00,65.9,61.6,29.86,SSW,193,6.0,12.0,86,0.00,,,0.00,WeatherDisplay:10.37,2013-08-05 10:59:00,
2013-08-05 12:05:00,65.7,60.8,29.85,South,190,7.0,13.0,84,0.00,,,0.00,WeatherDisplay:10.37,2013-08-05 11:05:00,
2013-08-05 12:10:00,65.5,60.2,29.85,SSW,193,7.0,14.0,83,0.00,,,0.00,WeatherDisplay:10.37,2013-08-05 11:10:00,
2013-08-05 12:15:00,65.2,60.2,29.85,SSW,194,5.0,14.0,84,0.00,,,0.00,WeatherDisplay:10.37,2013-08-05 11:15:00,
2013-08-05 12:20:00,65.0,60.1,29.86,South,189,8.0,13.0,84,0.00,,,0.00,WeatherDisplay:10.37,2013-08-05 11:20:00,
2013-08-05 12:25:00,65.2,60.6,29.86,SSW,197,6.0,13.0,85,0.00,,,0.00,WeatherDisplay:10.37,2013-08-05 11:25:00,
2013-08-05 12:30:00,66.0,61.0,29.86,SSW,196,5.0,18.0,84,0.00,,,0.00,WeatherDisplay:10.37,2013-08-05 11:30:00,
2013-08-05 12:40:00,66.7,60.4,29.84,SSW,195,7.0,13.0,80,0.00,,,0.00,WeatherDisplay:10.37,2013-08-05 11:40:00,
2013-08-05 12:45:00,66.9,60.9,29.84,SSW,203,8.0,17.0,81,0.00,,,0.00,WeatherDisplay:10.37,2013-08-05 11:45:00,
2013-08-05 12:50:00,67.2,61.2,29.84,SSW,202,5.0,13.0,81,0.00,,,0.00,WeatherDisplay:10.37,2013-08-05 11:50:00,
2013-08-05 13:00:00,68.5,61.7,29.84,SSW,195,8.0,16.0,79,0.00,,,0.00,WeatherDisplay:10.37,2013-08-05 12:00:00,
2013-08-05 13:04:00,68.9,61.7,29.83,SSW,192,8.0,18.0,78,0.00,,,0.00,WeatherDisplay:10.37,2013-08-05 12:04:00,
2013-08-05 13:10:00,68.9,61.8,29.83,South,186,6.0,18.0,78,0.00,,,0.00,WeatherDisplay:10.37,2013-08-05 12:10:00,
2013-08-05 13:15:00,69.2,61.7,29.83,SSW,195,6.0,13.0,77,0.00,,,0.00,WeatherDisplay:10.37,2013-08-05 12:15:00,
2013-08-05 13:20:00,69.4,61.5,29.83,SSW,198,5.0,20.0,76,0.00,,,0.00,WeatherDisplay:10.37,2013-08-05 12:20:00,
2013-08-05 13:29:00,70.0,62.1,29.83,South,183,8.0,15.0,76,0.00,,,0.00,WeatherDisplay:10.37,2013-08-05 12:29:00,
2013-08-05 13:35:00,69.8,61.9,29.83,South,175,5.0,13.0,76,0.00,,,0.00,WeatherDisplay:10.37,2013-08-05 12:35:00,
2013-08-05 13:40:00,69.3,61.4,29.83,South,181,6.0,16.0,76,0.00,,,0.00,WeatherDisplay:10.37,2013-08-05 12:40:00,
2013-08-05 13:50:00,68.5,61.4,29.82,South,179,8.0,16.0,78,0.00,,,0.00,WeatherDisplay:10.37,2013-08-05 12:50:00,
2013-08-05 13:54:00,68.4,61.6,29.82,South,172,3.0,10.0,79,0.00,,,0.00,WeatherDisplay:10.37,2013-08-05 12:54:00,
2013-08-05 14:00:00,68.2,61.1,29.82,South,178,6.0,12.0,78,0.00,,,0.00,WeatherDisplay:10.37,2013-08-05 13:00:00,
2013-08-05 14:04:00,68.2,61.1,29.82,South,188,6.0,14.0,78,0.00,,,0.00,WeatherDisplay:10.37,2013-08-05 13:04:00,
2013-08-05 14:09:00,68.4,61.3,29.81,SSW,194,3.0,14.0,78,0.00,,,0.00,WeatherDisplay:10.37,2013-08-05 13:09:00,
2013-08-05 14:14:00,68.5,61.0,29.81,SSW,193,7.0,17.0,77,0.00,,,0.00,WeatherDisplay:10.37,2013-08-05 13:14:00,
2013-08-05 14:20:00,68.4,60.9,29.81,South,186,7.0,20.0,77,0.00,,,0.00,WeatherDisplay:10.37,2013-08-05 13:20:00,
2013-08-05 14:24:00,68.3,60.8,29.81,South,188,7.0,14.0,77,0.00,,,0.00,WeatherDisplay:10.37,2013-08-05 13:24:00,
2013-08-05 14:35:00,67.9,60.8,29.81,South,191,6.0,13.0,78,0.00,,,0.00,WeatherDisplay:10.37,2013-08-05 13:35:00,
2013-08-05 14:50:00,68.3,61.5,29.80,South,185,7.0,17.0,79,0.00,,,0.00,WeatherDisplay:10.37,2013-08-05 13:50:00,
2013-08-05 15:00:00,68.8,60.5,29.80,SSW,192,6.0,13.0,75,0.00,,,0.00,WeatherDisplay:10.37,2013-08-05 14:00:00,
2013-08-05 15:05:00,68.7,60.8,29.79,SSW,198,5.0,13.0,76,0.00,,,0.00,WeatherDisplay:10.37,2013-08-05 14:05:00,
2013-08-05 15:10:00,68.6,60.4,29.78,SSW,194,6.0,13.0,75,0.00,,,0.00,WeatherDisplay:10.37,2013-08-05 14:10:00,
2013-08-05 15:14:00,68.5,61.0,29.78,South,186,6.0,12.0,77,0.00,,,0.00,WeatherDisplay:10.37,2013-08-05 14:14:00,
2013-08-05 15:20:00,68.2,60.7,29.78,South,174,5.0,13.0,77,0.00,,,0.00,WeatherDisplay:10.37,2013-08-05 14:20:00,
2013-08-05 15:25:00,67.7,60.6,29.78,South,170,6.0,12.0,78,0.00,,,0.00,WeatherDisplay:10.37,2013-08-05 14:25:00,
2013-08-05 15:30:00,67.2,60.9,29.78,South,176,2.0,12.0,80,0.01,RA,,0.01,WeatherDisplay:10.37,2013-08-05 14:30:00,
2013-08-05 15:35:00,66.8,61.5,29.78,South,190,3.0,7.0,83,0.02,RA,,0.03,WeatherDisplay:10.37,2013-08-05 14:35:00,
2013-08-05 15:45:00,65.6,61.3,29.78,SW,214,0.0,3.0,86,0.01,RA,,0.07,WeatherDisplay:10.37,2013-08-05 14:45:00,
2013-08-05 15:50:00,65.1,61.1,29.78,SW,216,1.0,4.0,87,0.02,RA,,0.09,WeatherDisplay:10.37,2013-08-05 14:50:00,
2013-08-05 15:55:00,64.7,61.1,29.78,WSW,240,3.0,9.0,88,0.03,RA,,0.13,WeatherDisplay:10.37,2013-08-05 14:55:00,
2013-08-05 16:00:00,64.3,61.0,29.78,WSW,253,5.0,9.0,89,0.04,RA,,0.17,WeatherDisplay:10.37,2013-08-05 15:00:00,
2013-08-05 16:05:00,64.0,60.6,29.78,WSW,258,2.0,9.0,89,0.03,RA,,0.20,WeatherDisplay:10.37,2013-08-05 15:05:00,
2013-08-05 16:15:00,63.1,60.1,29.78,West,267,3.0,8.0,90,0.02,RA,,0.28,WeatherDisplay:10.37,2013-08-05 15:15:00,
2013-08-05 16:20:00,62.7,60.1,29.79,West,265,6.0,10.0,91,0.02,RA,,0.30,WeatherDisplay:10.37,2013-08-05 15:20:00,
2013-08-05 16:25:00,62.4,60.0,29.79,West,261,1.0,10.0,92,0.05,RA,,0.36,WeatherDisplay:10.37,2013-08-05 15:25:00,
2013-08-05 16:35:00,62.0,59.6,29.79,SW,236,1.0,4.0,92,0.02,RA,,0.43,WeatherDisplay:10.37,2013-08-05 15:35:00,
2013-08-05 16:40:00,61.8,59.8,29.78,SW,223,0.0,4.0,93,0.00,RA,,0.43,WeatherDisplay:10.37,2013-08-05 15:40:00,
2013-08-05 16:45:00,61.7,59.6,29.78,SW,223,0.0,2.0,93,0.00,,,0.43,WeatherDisplay:10.37,2013-08-05 15:45:00,
2013-08-05 16:50:00,61.6,59.6,29.78,SW,223,1.0,3.0,93,0.00,,,0.43,WeatherDisplay:10.37,2013-08-05 15:50:00,
2013-08-05 16:55:00,61.6,59.9,29.78,SW,223,0.0,2.0,94,0.02,RA,,0.45,WeatherDisplay:10.37,2013-08-05 15:55:00,
2013-08-05 17:05:00,61.6,59.9,29.77,SW,222,0.0,2.0,94,0.01,RA,,0.49,WeatherDisplay:10.37,2013-08-05 16:05:00,
2013-08-05 17:09:00,61.5,59.8,29.77,SW,222,0.0,1.0,94,0.00,RA,,0.49,WeatherDisplay:10.37,2013-08-05 16:09:00,
2013-08-05 17:15:00,61.4,59.7,29.76,SW,222,0.0,0.0,94,0.01,RA,,0.50,WeatherDisplay:10.37,2013-08-05 16:15:00,
2013-08-05 17:30:00,61.3,59.6,29.76,SW,222,0.0,0.0,94,0.01,RA,,0.52,WeatherDisplay:10.37,2013-08-05 16:30:00,
2013-08-05 17:40:00,61.4,60.0,29.76,SW,222,0.0,1.0,95,0.01,RA,,0.54,WeatherDisplay:10.37,2013-08-05 16:40:00,
2013-08-05 17:44:00,61.5,60.1,29.76,SW,222,0.0,3.0,95,0.01,RA,,0.55,WeatherDisplay:10.37,2013-08-05 16:44:00,
2013-08-05 17:50:00,61.6,60.2,29.76,SW,222,0.0,1.0,95,0.00,RA,,0.55,WeatherDisplay:10.37,2013-08-05 16:50:00,
2013-08-05 17:54:00,61.7,60.2,29.76,SW,222,0.0,2.0,95,0.01,RA,,0.56,WeatherDisplay:10.37,2013-08-05 16:54:00,
2013-08-05 18:00:00,61.7,60.3,29.76,SW,222,0.0,2.0,95,0.00,RA,,0.56,WeatherDisplay:10.37,2013-08-05 17:00:00,
2013-08-05 18:09:00,61.8,60.4,29.76,SW,222,1.0,3.0,95,0.00,,,0.56,WeatherDisplay:10.37,2013-08-05 17:09:00,
2013-08-05 18:20:00,61.9,60.5,29.76,SW,222,2.0,4.0,95,0.00,,,0.56,WeatherDisplay:10.37,2013-08-05 17:20:00,
2013-08-05 18:25:00,62.0,60.6,29.76,SSW,213,2.0,5.0,95,0.00,,,0.56,WeatherDisplay:10.37,2013-08-05 17:25:00,
2013-08-05 18:29:00,62.2,60.7,29.76,SSW,200,1.0,4.0,95,0.00,,,0.56,WeatherDisplay:10.37,2013-08-05 17:29:00,
2013-08-05 18:45:00,62.4,61.2,29.76,SSW,197,0.0,2.0,96,0.00,,,0.56,WeatherDisplay:10.37,2013-08-05 17:45:00,
2013-08-05 18:50:00,62.4,61.0,29.77,SSW,197,0.0,3.0,95,0.00,,,0.56,WeatherDisplay:10.37,2013-08-05 17:50:00,
2013-08-05 18:55:00,62.5,61.0,29.77,SSW,197,0.0,3.0,95,0.00,,,0.56,WeatherDisplay:10.37,2013-08-05 17:55:00,
2013-08-05 19:00:00,62.5,61.0,29.77,SSW,197,1.0,3.0,95,0.00,,,0.56,WeatherDisplay:10.37,2013-08-05 18:00:00,
2013-08-05 19:05:00,62.5,61.1,29.77,SSW,197,0.0,3.0,95,0.00,,,0.56,WeatherDisplay:10.37,2013-08-05 18:05:00,
2013-08-05 19:10:00,62.6,61.1,29.78,SSW,197,1.0,2.0,95,0.00,,,0.56,WeatherDisplay:10.37,2013-08-05 18:10:00,
2013-08-05 19:15:00,62.6,61.1,29.78,SSW,197,0.0,2.0,95,0.00,,,0.56,WeatherDisplay:10.37,2013-08-05 18:15:00,
2013-08-05 19:20:00,62.7,61.2,29.78,SSW,197,0.0,3.0,95,0.00,,,0.56,WeatherDisplay:10.37,2013-08-05 18:20:00,
2013-08-05 19:30:00,62.9,61.4,29.78,SSW,198,1.0,4.0,95,0.00,,,0.56,WeatherDisplay:10.37,2013-08-05 18:30:00,
2013-08-05 19:35:00,62.9,61.4,29.78,SSW,198,0.0,4.0,95,0.00,,,0.56,WeatherDisplay:10.37,2013-08-05 18:35:00,
2013-08-05 19:45:00,63.0,61.8,29.79,SSW,199,0.0,3.0,96,0.00,,,0.56,WeatherDisplay:10.37,2013-08-05 18:45:00,
2013-08-05 19:50:00,63.0,61.5,29.79,SSW,199,0.0,2.0,95,0.00,,,0.56,WeatherDisplay:10.37,2013-08-05 18:50:00,
2013-08-05 19:55:00,63.0,61.5,29.79,SSW,199,1.0,3.0,95,0.00,,,0.56,WeatherDisplay:10.37,2013-08-05 18:55:00,
2013-08-05 20:00:00,63.0,61.5,29.79,SSW,206,1.0,6.0,95,0.00,,,0.56,WeatherDisplay:10.37,2013-08-05 19:00:00,
2013-08-05 20:05:00,62.9,61.5,29.80,SSW,210,0.0,3.0,95,0.00,,,0.56,WeatherDisplay:10.37,2013-08-05 19:05:00,
2013-08-05 20:10:00,62.9,61.4,29.80,SSW,210,2.0,4.0,95,0.00,,,0.56,WeatherDisplay:10.37,2013-08-05 19:10:00,
2013-08-05 20:15:00,62.8,61.3,29.80,SSW,210,1.0,4.0,95,0.00,,,0.56,WeatherDisplay:10.37,2013-08-05 19:15:00,
2013-08-05 20:20:00,62.7,61.3,29.81,SSW,210,1.0,4.0,95,0.00,,,0.56,WeatherDisplay:10.37,2013-08-05 19:20:00,
2013-08-05 20:25:00,62.7,61.2,29.81,SSW,211,0.0,3.0,95,0.00,,,0.56,WeatherDisplay:10.37,2013-08-05 19:25:00,
2013-08-05 20:30:00,62.7,61.2,29.81,SW,218,2.0,5.0,95,0.00,,,0.56,WeatherDisplay:10.37,2013-08-05 19:30:00,
2013-08-05 20:35:00,62.7,61.2,29.82,SW,228,0.0,6.0,95,0.00,,,0.56,WeatherDisplay:10.37,2013-08-05 19:35:00,
2013-08-05 20:40:00,62.7,61.2,29.82,SW,236,2.0,5.0,95,0.00,,,0.56,WeatherDisplay:10.37,2013-08-05 19:40:00,
2013-08-05 21:00:00,62.4,60.9,29.83,NW,321,2.0,7.0,95,0.00,,,0.56,WeatherDisplay:10.37,2013-08-05 20:00:00,
2013-08-05 21:05:00,62.2,60.4,29.84,NNW,336,1.0,6.0,94,0.00,,,0.56,WeatherDisplay:10.37,2013-08-05 20:05:00,
2013-08-05 21:10:00,61.9,60.2,29.84,NW,313,0.0,3.0,94,0.00,,,0.56,WeatherDisplay:10.37,2013-08-05 20:10:00,
2013-08-05 21:15:00,61.7,59.9,29.84,NW,313,1.0,5.0,94,0.00,,,0.56,WeatherDisplay:10.37,2013-08-05 20:15:00,
2013-08-05 21:25:00,61.1,59.4,29.85,NW,312,1.0,3.0,94,0.00,,,0.56,WeatherDisplay:10.37,2013-08-05 20:25:00,
2013-08-05 21:30:00,60.8,59.1,29.85,NW,312,0.0,3.0,94,0.00,,,0.56,WeatherDisplay:10.37,2013-08-05 20:30:00,
2013-08-05 21:40:00,60.3,58.6,29.86,NW,308,0.0,2.0,94,0.00,,,0.56,WeatherDisplay:10.37,2013-08-05 20:40:00,
2013-08-05 21:50:00,59.9,58.2,29.87,WNW,301,1.0,2.0,94,0.00,,,0.56,WeatherDisplay:10.37,2013-08-05 20:50:00,
2013-08-05 21:55:00,59.8,58.4,29.87,WNW,300,0.0,4.0,95,0.00,,,0.56,WeatherDisplay:10.37,2013-08-05 20:55:00,
2013-08-05 22:00:00,59.8,58.4,29.87,WNW,299,0.0,2.0,95,0.00,,,0.56,WeatherDisplay:10.37,2013-08-05 21:00:00,
2013-08-05 22:05:00,59.7,58.3,29.87,WNW,298,1.0,4.0,95,0.00,,,0.56,WeatherDisplay:10.37,2013-08-05 21:05:00,
2013-08-05 22:10:00,59.8,58.4,29.88,WNW,298,0.0,3.0,95,0.00,,,0.56,WeatherDisplay:10.37,2013-08-05 21:10:00,
2013-08-05 22:15:00,59.8,58.7,29.88,WNW,297,1.0,4.0,96,0.00,,,0.56,WeatherDisplay:10.37,2013-08-05 21:15:00,
2013-08-05 22:20:00,60.0,58.9,29.89,NW,311,2.0,6.0,96,0.00,,,0.56,WeatherDisplay:10.37,2013-08-05 21:20:00,
2013-08-05 22:25:00,60.2,59.1,29.89,NW,316,0.0,5.0,96,0.00,,,0.56,WeatherDisplay:10.37,2013-08-05 21:25:00,
2013-08-05 22:30:00,60.2,59.1,29.89,NW,315,1.0,7.0,96,0.00,,,0.56,WeatherDisplay:10.37,2013-08-05 21:30:00,
2013-08-05 22:35:00,60.3,59.2,29.89,NW,308,1.0,7.0,96,0.01,RA,,0.57,WeatherDisplay:10.37,2013-08-05 21:35:00,
2013-08-05 22:40:00,60.3,59.2,29.89,NW,312,2.0,9.0,96,0.00,RA,,0.57,WeatherDisplay:10.37,2013-08-05 21:40:00,
2013-08-05 22:45:00,60.2,59.1,29.89,NW,320,2.0,6.0,96,0.00,,,0.57,WeatherDisplay:10.37,2013-08-05 21:45:00,
2013-08-05 23:05:00,59.7,58.3,29.90,North,353,3.0,10.0,95,0.00,,,0.57,WeatherDisplay:10.37,2013-08-05 22:05:00,
2013-08-05 23:10:00,59.5,58.1,29.90,North,360,1.0,5.0,95,0.00,,,0.57,WeatherDisplay:10.37,2013-08-05 22:10:00,
2013-08-05 23:15:00,59.3,57.9,29.90,North,350,2.0,5.0,95,0.00,,,0.57,WeatherDisplay:10.37,2013-08-05 22:15:00,
2013-08-05 23:20:00,59.1,57.7,29.90,NNW,332,1.0,5.0,95,0.00,,,0.57,WeatherDisplay:10.37,2013-08-05 22:20:00,
2013-08-05 23:25:00,58.9,57.5,29.90,NNW,327,1.0,4.0,95,0.00,,,0.57,WeatherDisplay:10.37,2013-08-05 22:25:00,
2013-08-05 23:35:00,58.6,57.2,29.91,North,4,0.0,3.0,95,0.00,,,0.57,WeatherDisplay:10.37,2013-08-05 22:35:00,
2013-08-05 23:40:00,58.4,57.0,29.91,North,5,2.0,5.0,95,0.00,,,0.57,WeatherDisplay:10.37,2013-08-05 22:40:00,
2013-08-05 23:45:00,58.3,56.9,29.91,North,6,1.0,5.0,95,0.00,,,0.57,WeatherDisplay:10.37,2013-08-05 22:45:00,
2013-08-05 23:50:00,58.2,56.8,29.92,North,6,0.0,3.0,95,0.00,,,0.57,WeatherDisplay:10.37,2013-08-05 22:50:00,
2013-08-05 23:55:00,58.0,56.6,29.92,North,5,1.0,3.0,95,0.00,,,0.57,WeatherDisplay:10.37,2013-08-05 22:55:00,